sat.trackr.live / text

‹ back to catalog

COSMOS 2579

NORAD 61730 · 2024-197A

PAYLOAD ACTIVE UNKNOWN

§ Identity

Operator
Country
CIS
Launch date
2024-10-31
Launch site
PLMSC
Launch vehicle
Mass (kg)
RCS (m²)

External: N2YO · Heavens-Above · Gunter

§ Orbital elements

Epoch: 2026-09-22T23:02:40.038432Z

Period
94.40 min
Inclination
97.5568°
Eccentricity
0.0002907
Mean motion
15.25449528 rev/d
Perigee alt
487.4 km
Apogee alt
491.4 km
Semi-major
6,867.6 km
B*
1.0547e-4
RAAN
190.8837°
Arg perigee
69.2003°
Mean anomaly
290.9546°
Rev number
10,537

§ Raw data

COSMOS 25791 61730U 24197A   26265.96018563  .00002592  00000+0  10547-3 0  99962 61730  97.5568 190.8837 0002907  69.2003 290.9546 15.25449528105379

JSON: /api/v1/satellites/61730 · /tle

For live sub-satellite position, see the globe view (requires WebGL).

§ Visibility from observer

Set your observer location to see the next 7 days of passes ≥ 10°. The values pass through the URL so the page stays shareable.

No JS? Fill the form by hand. The geolocation button needs JavaScript.